sat.trackr.live / text

‹ back to catalog

STARLINK-35239

NORAD 65623 · 2025-210B

PAYLOAD ACTIVE UNKNOWN

§ Identity

Operator
Country
US
Launch date
2025-09-18
Launch site
AFETR
Launch vehicle
Mass (kg)
RCS (m²)

Purposes: comms

External: N2YO · Heavens-Above · Gunter

§ Orbital elements

Epoch: 2026-09-20T07:19:36.637824Z

Period
93.85 min
Inclination
53.1577°
Eccentricity
0.0001765
Mean motion
15.34393338 rev/d
Perigee alt
461.5 km
Apogee alt
463.9 km
Semi-major
6,840.9 km
B*
4.4457e-4
RAAN
118.4310°
Arg perigee
82.7581°
Mean anomaly
277.3623°
Rev number
5,759

§ Raw data

STARLINK-352391 65623U 25210B   26263.30528516  .00014670  00000+0  44457-3 0  99952 65623  53.1577 118.4310 0001765  82.7581 277.3623 15.34393338 57598

JSON: /api/v1/satellites/65623 · /tle

For live sub-satellite position, see the globe view (requires WebGL).

§ Visibility from observer

Set your observer location to see the next 7 days of passes ≥ 10°. The values pass through the URL so the page stays shareable.

No JS? Fill the form by hand. The geolocation button needs JavaScript.